HK4RAU-60 Weather Reports


time (UTC)temp
F
wind
direction
speed
knots
gust
knots
rain 1hr
in
rain 24hr
in
rain mn
in
humidity
%
barometer
mb
20260507161828 78 0 5.2 0.0 0.00 0.00 0.00 54 1015.0
20260507161521 74 0 5.2 0.0 0.00 0.00 0.00 54 1015.0
20260507161220 78 0 5.2 0.0 0.00 0.00 0.00 54 1015.0
20260507160918 78 0 5.2 0.0 0.00 0.00 0.00 54 1015.0
20260507160612 72 110 3.5 0.0 0.00 0.00 0.00 61 1015.0
20260507160303 76 110 3.5 0.0 0.00 0.00 0.00 61 1016.0
20260507155955 76 110 3.5 0.0 0.00 0.00 0.00 61 1016.0
20260507155649 72 110 3.5 0.0 0.00 0.00 0.00 61 1016.0
20260507155346 76 110 3.5 0.0 0.00 0.00 0.00 61 1016.0
20260507155040 72 110 3.5 0.0 0.00 0.00 0.00 61 1016.0
20260507154738 72 110 3.5 0.0 0.00 0.00 0.00 61 1016.0
20260507154432 76 110 3.5 0.0 0.00 0.00 0.00 61 1016.0
20260507154131 72 110 3.5 0.0 0.00 0.00 0.00 61 1016.0
20260507153818 72 110 3.5 0.0 0.00 0.00 0.00 61 1016.0
20260507153512 72 110 3.5 0.0 0.00 0.00 0.00 61 1016.0
20260507153206 76 110 3.5 0.0 0.00 0.00 0.00 61 1016.0
20260507152903 76 110 3.5 0.0 0.00 0.00 0.00 61 1016.0
20260507152557 76 110 3.5 0.0 0.00 0.00 0.00 61 1016.0
20260507152249 76 110 3.5 0.0 0.00 0.00 0.00 61 1016.0
20260507151938 72 110 3.5 0.0 0.00 0.00 0.00 61 1016.0
20260507151637 76 110 3.5 0.0 0.00 0.00 0.00 61 1016.0
20260507151330 76 110 3.5 0.0 0.00 0.00 0.00 61 1016.0
20260507151029 71 130 5.2 0.0 0.00 0.00 0.00 65 1016.0
20260507150722 71 130 5.2 0.0 0.00 0.00 0.00 65 1016.0
20260507150419 71 130 5.2 0.0 0.00 0.00 0.00 65 1016.0
20260507150112 75 130 5.2 0.0 0.00 0.00 0.00 65 1016.0
20260507145806 75 130 5.2 0.0 0.00 0.00 0.00 65 1016.0
20260507145504 75 130 5.2 0.0 0.00 0.00 0.00 65 1016.0
20260507145158 75 130 5.2 0.0 0.00 0.00 0.00 65 1016.0
20260507144855 71 130 5.2 0.0 0.00 0.00 0.00 65 1016.0
20260507144554 75 130 5.2 0.0 0.00 0.00 0.00 65 1016.0
20260507144245 75 130 5.2 0.0 0.00 0.00 0.00 65 1016.0
20260507143939 75 130 5.2 0.0 0.00 0.00 0.00 65 1016.0
20260507143637 75 130 5.2 0.0 0.00 0.00 0.00 65 1016.0
20260507143335 71 130 5.2 0.0 0.00 0.00 0.00 65 1016.0
20260507143028 75 130 5.2 0.0 0.00 0.00 0.00 65 1016.0
20260507142727 67 130 5.2 0.0 0.00 0.00 0.00 65 1016.0
20260507142421 75 130 5.2 0.0 0.00 0.00 0.00 65 1016.0
20260507142114 67 130 5.2 0.0 0.00 0.00 0.00 65 1016.0
20260507141813 71 130 5.2 0.0 0.00 0.00 0.00 65 1016.0
20260507141506 75 130 5.2 0.0 0.00 0.00 0.00 65 1016.0
20260507141157 75 130 5.2 0.0 0.00 0.00 0.00 65 1016.0
20260507140850 71 130 5.2 0.0 0.00 0.00 0.00 65 1016.0
20260507140544 75 130 5.2 0.0 0.00 0.00 0.00 65 1016.0
20260507140238 67 0 0.9 0.0 0.00 0.00 0.00 57 1016.0
20260507135928 71 0 0.9 0.0 0.00 0.00 0.00 57 1016.0
20260507135624 67 0 0.9 0.0 0.00 0.00 0.00 57 1016.0
20260507135317 71 0 0.9 0.0 0.00 0.00 0.00 57 1016.0
20260507135011 71 0 0.9 0.0 0.00 0.00 0.00 57 1016.0
20260507134704 75 0 0.9 0.0 0.00 0.00 0.00 57 1016.0
20260507134358 67 0 0.9 0.0 0.00 0.00 0.00 57 1016.0
20260507134057 75 0 0.9 0.0 0.00 0.00 0.00 57 1016.0
20260507133745 67 0 0.9 0.0 0.00 0.00 0.00 57 1016.0
20260507133439 71 0 0.9 0.0 0.00 0.00 0.00 57 1016.0
20260507133132 71 0 0.9 0.0 0.00 0.00 0.00 57 1016.0
20260507132826 75 0 0.9 0.0 0.00 0.00 0.00 57 1016.0
20260507132519 67 0 0.9 0.0 0.00 0.00 0.00 57 1016.0
20260507132208 71 0 0.9 0.0 0.00 0.00 0.00 57 1016.0
20260507131856 71 0 0.9 0.0 0.00 0.00 0.00 57 1016.0
20260507131545 71 0 0.9 0.0 0.00 0.00 0.00 57 1016.0
20260507131242 71 0 0.9 0.0 0.00 0.00 0.00 57 1016.0
20260507130941 75 0 0.9 0.0 0.00 0.00 0.00 57 1016.0
20260507130639 64 164 2.6 1.7 0.00 0.00 0.00 76 1016.0
20260507130332 64 164 2.6 1.7 0.00 0.00 0.00 76 1016.0
20260507130025 64 164 2.6 1.7 0.00 0.00 0.00 76 1016.0
20260507125723 64 164 2.6 1.7 0.00 0.00 0.00 76 1016.0
20260507125417 63 164 2.6 1.7 0.00 0.00 0.00 77 1016.0
20260507125111 64 164 2.6 1.7 0.00 0.00 0.00 76 1016.0
20260507124809 63 164 2.6 1.7 0.00 0.00 0.00 77 1016.0
20260507124508 63 164 2.6 1.7 0.00 0.00 0.00 77 1016.0
20260507124206 63 164 2.6 1.7 0.00 0.00 0.00 77 1016.0
20260507123855 63 164 2.6 1.7 0.00 0.00 0.00 77 1016.0
20260507123548 63 164 2.6 1.7 0.00 0.00 0.00 77 1016.0
20260507122724 61 311 1.7 1.7 0.00 0.00 0.00 80 1016.0
20260507122417 61 311 1.7 1.7 0.00 0.00 0.00 80 1016.0
20260507122111 61 311 1.7 1.7 0.00 0.00 0.00 78 1016.0
20260507121141 61 311 1.7 1.7 0.00 0.00 0.00 78 1016.0
20260507120355 64 260 3.5 0.0 0.00 0.00 0.00 77 1016.0
20260507120043 64 260 3.5 0.0 0.00 0.00 0.00 77 1016.0
20260507115735 64 260 3.5 0.0 0.00 0.00 0.00 77 1016.0
20260507115428 64 260 3.5 0.0 0.00 0.00 0.00 77 1016.0
20260507115127 64 260 3.5 0.0 0.00 0.00 0.00 77 1016.0
20260507114826 64 260 3.5 0.0 0.00 0.00 0.00 77 1016.0
20260507114524 64 260 3.5 0.0 0.00 0.00 0.00 77 1016.0
20260507114218 60 260 3.5 0.0 0.00 0.00 0.00 77 1016.0
20260507113915 64 260 3.5 0.0 0.00 0.00 0.00 77 1016.0
20260507113604 64 260 3.5 0.0 0.00 0.00 0.00 77 1016.0
20260507113257 60 260 3.5 0.0 0.00 0.00 0.00 77 1016.0
20260507112948 60 260 3.5 0.0 0.00 0.00 0.00 77 1016.0
20260507112642 64 260 3.5 0.0 0.00 0.00 0.00 77 1016.0
20260507112332 64 260 3.5 0.0 0.00 0.00 0.00 77 1016.0
20260507112025 58 240 4.3 0.0 0.00 0.00 0.00 73 1016.0
20260507111719 64 260 3.5 0.0 0.00 0.00 0.00 77 1016.0
20260507111416 58 240 4.3 0.0 0.00 0.00 0.00 73 1016.0
20260507111113 58 240 4.3 0.0 0.00 0.00 0.00 73 1016.0
20260507110812 58 240 4.3 0.0 0.00 0.00 0.00 73 1016.0
20260507110501 62 240 4.3 0.0 0.00 0.00 0.00 73 1016.0
20260507110155 62 240 4.3 0.0 0.00 0.00 0.00 73 1016.0
20260507105852 62 240 4.3 0.0 0.00 0.00 0.00 73 1016.0
20260507105551 62 240 4.3 0.0 0.00 0.00 0.00 73 1016.0
20260507105239 66 240 4.3 0.0 0.00 0.00 0.00 73 1016.0
20260507104937 58 240 4.3 0.0 0.00 0.00 0.00 73 1016.0
20260507104625 58 240 4.3 0.0 0.00 0.00 0.00 73 1016.0
20260507104319 58 240 4.3 0.0 0.00 0.00 0.00 73 1016.0
20260507104008 62 240 4.3 0.0 0.00 0.00 0.00 73 1016.0
20260507103706 62 240 4.3 0.0 0.00 0.00 0.00 73 1016.0
20260507103400 62 240 4.3 0.0 0.00 0.00 0.00 73 1016.0
20260507103058 66 240 4.3 0.0 0.00 0.00 0.00 73 1016.0
20260507102757 58 240 4.3 0.0 0.00 0.00 0.00 78 1016.0
20260507102455 66 240 4.3 0.0 0.00 0.00 0.00 73 1016.0
20260507102152 58 240 4.3 0.0 0.00 0.00 0.00 78 1016.0
20260507101850 58 240 4.3 0.0 0.00 0.00 0.00 78 1016.0
20260507101544 62 240 4.3 0.0 0.00 0.00 0.00 78 1016.0
20260507101227 58 240 4.3 0.0 0.00 0.00 0.00 78 1016.0
20260507100926 62 240 4.3 0.0 0.00 0.00 0.00 78 1016.0
20260507100618 62 240 4.3 0.0 0.00 0.00 0.00 78 1016.0
20260507100317 66 280 3.5 0.0 0.00 0.00 0.00 78 1016.0
20260507100010 58 280 3.5 0.0 0.00 0.00 0.00 78 1016.0
20260507095702 62 280 3.5 0.0 0.00 0.00 0.00 78 1016.0
20260507095358 66 280 3.5 0.0 0.00 0.00 0.00 78 1016.0
20260507095046 58 280 3.5 0.0 0.00 0.00 0.00 78 1016.0
20260507094738 62 280 3.5 0.0 0.00 0.00 0.00 78 1016.0
20260507094431 62 280 3.5 0.0 0.00 0.00 0.00 78 1016.0
20260507094125 62 280 3.5 0.0 0.00 0.00 0.00 78 1016.0
20260507093823 66 280 3.5 0.0 0.00 0.00 0.00 78 1016.0
20260507093517 58 280 3.5 0.0 0.00 0.00 0.00 78 1016.0
20260507093215 62 280 3.5 0.0 0.00 0.00 0.00 78 1016.0
20260507092909 66 280 3.5 0.0 0.00 0.00 0.00 78 1016.0
20260507092602 58 280 3.5 0.0 0.00 0.00 0.00 78 1016.0
20260507092251 62 280 3.5 0.0 0.00 0.00 0.00 78 1016.0
20260507091944 66 280 3.5 0.0 0.00 0.00 0.00 78 1016.0
20260507091638 58 280 3.5 0.0 0.00 0.00 0.00 83 1016.0
20260507091331 62 0 2.6 0.0 0.00 0.00 0.00 83 1016.0
20260507091025 66 0 2.6 0.0 0.00 0.00 0.00 83 1016.0
20260507090723 62 0 2.6 0.0 0.00 0.00 0.00 83 1016.0
20260507090416 62 0 2.6 0.0 0.00 0.00 0.00 83 1016.0
20260507090105 66 0 2.6 0.0 0.00 0.00 0.00 83 1016.0
20260507085758 58 0 2.6 0.0 0.00 0.00 0.00 83 1016.0
20260507085451 66 0 2.6 0.0 0.00 0.00 0.00 83 1016.0
20260507085149 58 0 2.6 0.0 0.00 0.00 0.00 83 1016.0
20260507084838 58 0 2.6 0.0 0.00 0.00 0.00 83 1016.0
20260507084531 58 0 2.6 0.0 0.00 0.00 0.00 83 1016.0
20260507084227 62 0 2.6 0.0 0.00 0.00 0.00 83 1016.0
20260507083921 66 0 2.6 0.0 0.00 0.00 0.00 83 1016.0
20260507083619 58 0 2.6 0.0 0.00 0.00 0.00 83 1016.0
20260507083317 62 0 2.6 0.0 0.00 0.00 0.00 83 1016.0
20260507083009 66 0 2.6 0.0 0.00 0.00 0.00 83 1016.0
20260507082703 58 0 2.6 0.0 0.00 0.00 0.00 83 1016.0
20260507082356 62 0 2.6 0.0 0.00 0.00 0.00 83 1016.0
20260507082055 66 0 2.6 0.0 0.00 0.00 0.00 83 1016.0
20260507081748 66 0 2.6 0.0 0.00 0.00 0.00 83 1016.0
20260507081441 58 260 3.5 0.0 0.00 0.00 0.00 83 1016.0
20260507081130 58 260 3.5 0.0 0.00 0.00 0.00 83 1016.0
20260507080825 62 260 3.5 0.0 0.00 0.00 0.00 83 1016.0
20260507080519 62 260 3.5 0.0 0.00 0.00 0.00 83 1016.0
20260507080212 66 260 3.5 0.0 0.00 0.00 0.00 83 1016.0
20260507075905 66 260 3.5 0.0 0.00 0.00 0.00 83 1016.0
20260507075559 58 260 3.5 0.0 0.00 0.00 0.00 83 1016.0
20260507075252 62 260 3.5 0.0 0.00 0.00 0.00 83 1016.0
20260507074946 62 260 3.5 0.0 0.00 0.00 0.00 83 1016.0
20260507074644 66 260 3.5 0.0 0.00 0.00 0.00 83 1016.0
20260507074338 66 260 3.5 0.0 0.00 0.00 0.00 83 1016.0
20260507074031 58 260 3.5 0.0 0.00 0.00 0.00 83 1016.0
20260507073723 66 260 3.5 0.0 0.00 0.00 0.00 83 1016.0
20260507073416 58 260 3.5 0.0 0.00 0.00 0.00 83 1016.0
20260507073110 58 260 3.5 0.0 0.00 0.00 0.00 83 1016.0
20260507072809 62 260 3.5 0.0 0.00 0.00 0.00 83 1016.0
20260507072502 62 260 3.5 0.0 0.00 0.00 0.00 83 1017.0
20260507072156 62 260 3.5 0.0 0.00 0.00 0.00 83 1016.0
20260507071848 66 260 3.5 0.0 0.00 0.00 0.00 83 1017.0
20260507071547 62 260 3.5 0.0 0.00 0.00 0.00 83 1017.0
20260507071240 62 260 3.5 0.0 0.00 0.00 0.00 83 1017.0
20260507070934 66 260 3.5 0.0 0.00 0.00 0.00 83 1017.0
20260507070627 59 220 3.5 0.0 0.00 0.00 0.00 78 1017.0
20260507070321 59 220 3.5 0.0 0.00 0.00 0.00 78 1017.0
20260507070014 59 220 3.5 0.0 0.00 0.00 0.00 78 1017.0
20260507065708 59 220 3.5 0.0 0.00 0.00 0.00 78 1017.0
20260507065406 63 220 3.5 0.0 0.00 0.00 0.00 78 1017.0
20260507065100 67 220 3.5 0.0 0.00 0.00 0.00 78 1017.0
20260507064758 67 220 3.5 0.0 0.00 0.00 0.00 78 1017.0
20260507064452 59 220 3.5 0.0 0.00 0.00 0.00 78 1017.0
20260507064150 59 220 3.5 0.0 0.00 0.00 0.00 78 1017.0
20260507063844 67 220 3.5 0.0 0.00 0.00 0.00 78 1017.0
20260507063536 59 220 3.5 0.0 0.00 0.00 0.00 78 1017.0
20260507063230 63 220 3.5 0.0 0.00 0.00 0.00 78 1017.0
20260507062928 63 220 3.5 0.0 0.00 0.00 0.00 78 1017.0
20260507062623 59 220 3.5 0.0 0.00 0.00 0.00 78 1017.0
20260507062317 63 220 3.5 0.0 0.00 0.00 0.00 78 1017.0
20260507062011 67 220 3.5 0.0 0.00 0.00 0.00 78 1017.0
20260507061704 59 260 3.5 0.0 0.00 0.00 0.00 83 1017.0
20260507061355 59 260 3.5 0.0 0.00 0.00 0.00 83 1017.0
20260507061049 63 260 3.5 0.0 0.00 0.00 0.00 83 1017.0
20260507060748 63 260 3.5 0.0 0.00 0.00 0.00 83 1017.0
20260507060441 63 260 3.5 0.0 0.00 0.00 0.00 83 1017.0
20260507060138 63 260 3.5 0.0 0.00 0.00 0.00 83 1017.0
20260507055832 67 260 3.5 0.0 0.00 0.00 0.00 83 1017.0
20260507055530 59 260 3.5 0.0 0.00 0.00 0.00 83 1017.0
20260507055224 59 260 3.5 0.0 0.00 0.00 0.00 83 1017.0
20260507054917 59 260 3.5 0.0 0.00 0.00 0.00 83 1017.0
20260507054616 59 260 3.5 0.0 0.00 0.00 0.00 83 1017.0
20260507054304 63 260 3.5 0.0 0.00 0.00 0.00 83 1017.0
20260507053638 67 260 3.5 0.0 0.00 0.00 0.00 83 1017.0
20260507053334 67 260 3.5 0.0 0.00 0.00 0.00 83 1017.0
20260507053028 59 260 3.5 0.0 0.00 0.00 0.00 83 1017.0
20260507052416 63 260 3.5 0.0 0.00 0.00 0.00 83 1018.0
20260507052104 63 260 3.5 0.0 0.00 0.00 0.00 83 1018.0
20260507051802 67 260 3.5 0.0 0.00 0.00 0.00 83 1018.0
20260507051455 61 320 5.2 3.5 0.00 0.00 0.00 81 1018.0
20260507045820 61 320 5.2 3.5 0.00 0.00 0.00 82 1018.0
20260507045518 61 320 5.2 3.5 0.00 0.00 0.00 82 1018.0
20260507044850 61 320 5.2 3.5 0.00 0.00 0.00 82 1018.0
20260507044549 61 320 5.2 3.5 0.00 0.00 0.00 82 1018.0
20260507044246 61 320 5.2 3.5 0.00 0.00 0.00 82 1018.0
20260507043943 62 319 5.2 3.5 0.00 0.00 0.00 81 1018.0
20260507043631 61 320 5.2 3.5 0.00 0.00 0.00 82 1018.0
20260507043330 62 319 5.2 3.5 0.00 0.00 0.00 81 1018.0
20260507043023 62 319 5.2 3.5 0.00 0.00 0.00 81 1018.0
20260507042722 62 319 5.2 3.5 0.00 0.00 0.00 81 1018.0
20260507042420 62 319 5.2 3.5 0.00 0.00 0.00 81 1018.0
20260507042109 61 260 2.6 0.0 0.00 0.00 0.00 83 1018.0
20260507041500 62 319 5.2 3.5 0.00 0.00 0.00 81 1018.0
20260507041154 61 260 2.6 0.0 0.00 0.00 0.00 83 1018.0
20260507040847 65 260 2.6 0.0 0.00 0.00 0.00 83 1018.0
20260507040544 65 260 2.6 0.0 0.00 0.00 0.00 83 1018.0
20260507040238 69 260 2.6 0.0 0.00 0.00 0.00 83 1018.0
20260507035926 69 260 2.6 0.0 0.00 0.00 0.00 83 1018.0
20260507035620 69 260 2.6 0.0 0.00 0.00 0.00 83 1018.0
20260507035318 61 260 2.6 0.0 0.00 0.00 0.00 83 1018.0
20260507035012 61 260 2.6 0.0 0.00 0.00 0.00 83 1018.0
20260507034707 61 260 2.6 0.0 0.00 0.00 0.00 83 1018.0
20260507034401 65 260 2.6 0.0 0.00 0.00 0.00 83 1018.0
20260507034058 61 260 2.6 0.0 0.00 0.00 0.00 83 1018.0
20260507033757 65 260 2.6 0.0 0.00 0.00 0.00 83 1017.0
20260507033449 65 260 2.6 0.0 0.00 0.00 0.00 83 1018.0
20260507033143 69 260 2.6 0.0 0.00 0.00 0.00 83 1017.0
20260507032831 65 260 2.6 0.0 0.00 0.00 0.00 83 1017.0
20260507032525 69 260 2.6 0.0 0.00 0.00 0.00 83 1017.0
20260507032218 61 260 2.6 0.0 0.00 0.00 0.00 83 1017.0
20260507031911 69 260 2.6 0.0 0.00 0.00 0.00 83 1017.0
20260507031609 65 260 2.6 0.0 0.00 0.00 0.00 83 1017.0
20260507031303 69 260 2.6 0.0 0.00 0.00 0.00 83 1017.0
20260507031001 63 260 2.6 0.0 0.00 0.00 0.00 88 1017.0
20260507030700 67 0 0.0 0.0 0.00 0.00 0.00 88 1018.0
20260507030359 67 0 0.0 0.0 0.00 0.00 0.00 88 1018.0
20260507030052 63 0 0.0 0.0 0.00 0.00 0.00 88 1018.0
20260507025751 67 0 0.0 0.0 0.00 0.00 0.00 88 1018.0
20260507025444 63 0 0.0 0.0 0.00 0.00 0.00 88 1018.0
20260507025138 67 0 0.0 0.0 0.00 0.00 0.00 88 1018.0
20260507024836 67 0 0.0 0.0 0.00 0.00 0.00 88 1018.0
20260507024535 63 0 0.0 0.0 0.00 0.00 0.00 88 1018.0
20260507024234 67 0 0.0 0.0 0.00 0.00 0.00 88 1016.0
20260507023932 67 0 0.0 0.0 0.00 0.00 0.00 88 1016.0
20260507023631 67 0 0.0 0.0 0.00 0.00 0.00 88 1016.0
20260507023324 67 0 0.0 0.0 0.00 0.00 0.00 88 1016.0
20260507023018 63 0 0.0 0.0 0.00 0.00 0.00 88 1016.0
20260507022715 63 0 0.0 0.0 0.00 0.00 0.00 88 1016.0
20260507021859 67 0 0.0 0.0 0.00 0.00 0.00 88 1016.0
20260507021557 67 0 0.0 0.0 0.00 0.00 0.00 88 1016.0
20260507021254 61 0 0.0 0.0 0.00 0.00 0.00 78 1016.0
20260507020952 65 0 0.0 0.0 0.00 0.00 0.00 78 1016.0
20260507020649 65 0 0.0 0.0 0.00 0.00 0.00 78 1016.0
20260507020346 69 0 0.0 0.0 0.00 0.00 0.00 78 1017.0
20260507020044 69 0 0.0 0.0 0.00 0.00 0.00 78 1017.0
20260507015736 69 0 0.0 0.0 0.00 0.00 0.00 78 1017.0
20260507015432 69 0 0.0 0.0 0.00 0.00 0.00 78 1017.0
20260507014823 61 0 0.0 0.0 0.00 0.00 0.00 78 1017.0
20260507014516 65 0 0.0 0.0 0.00 0.00 0.00 78 1017.0
20260507014215 69 0 0.0 0.0 0.00 0.00 0.00 78 1017.0
20260507013912 61 0 0.0 0.0 0.00 0.00 0.00 78 1017.0
20260507013608 65 0 0.0 0.0 0.00 0.00 0.00 78 1015.0
20260507013306 65 0 0.0 0.0 0.00 0.00 0.00 78 1015.0
20260507013003 65 0 0.0 0.0 0.00 0.00 0.00 78 1015.0
20260507012702 69 0 0.0 0.0 0.00 0.00 0.00 78 1015.0
20260507012401 65 0 0.0 0.0 0.00 0.00 0.00 78 1015.0
20260507012052 65 0 0.0 0.0 0.00 0.00 0.00 78 1015.0
20260507011749 65 0 0.0 0.0 0.00 0.00 0.00 78 1015.0
20260507011447 65 0 0.0 0.0 0.00 0.00 0.00 78 1015.0
20260507011145 69 0 0.0 0.0 0.00 0.00 0.00 78 1015.0
20260507010844 65 0 1.7 0.0 0.00 0.00 0.00 69 1016.0
20260507010542 65 0 1.7 0.0 0.00 0.00 0.00 69 1016.0
20260507010240 73 0 1.7 0.0 0.00 0.00 0.00 69 1015.0
20260507005933 65 0 1.7 0.0 0.00 0.00 0.00 69 1016.0
20260507005632 65 0 1.7 0.0 0.00 0.00 0.00 69 1016.0
20260507005325 69 0 1.7 0.0 0.00 0.00 0.00 69 1015.0
20260507005017 69 0 1.7 0.0 0.00 0.00 0.00 69 1015.0
20260507004715 69 0 1.7 0.0 0.00 0.00 0.00 69 1015.0
20260507004412 73 0 1.7 0.0 0.00 0.00 0.00 69 1015.0
20260507004106 73 0 1.7 0.0 0.00 0.00 0.00 69 1015.0
20260507003805 65 0 1.7 0.0 0.00 0.00 0.00 69 1015.0
20260507003503 65 0 1.7 0.0 0.00 0.00 0.00 69 1015.0
20260507003201 69 0 1.7 0.0 0.00 0.00 0.00 69 1014.0
20260507002854 69 0 1.7 0.0 0.00 0.00 0.00 69 1014.0
20260507002552 69 0 1.7 0.0 0.00 0.00 0.00 69 1014.0
20260507002246 69 0 1.7 0.0 0.00 0.00 0.00 69 1014.0
20260507001942 73 0 1.7 0.0 0.00 0.00 0.00 69 1014.0
20260507001640 69 0 1.7 0.0 0.00 0.00 0.00 69 1014.0
20260507001338 73 0 1.7 0.0 0.00 0.00 0.00 69 1014.0
20260507001037 65 150 3.5 0.0 0.00 0.00 0.00 69 1014.0
20260507000735 65 150 3.5 0.0 0.00 0.00 0.00 69 1014.0
20260507000435 69 150 3.5 0.0 0.00 0.00 0.00 69 1014.0
20260507000132 73 150 3.5 0.0 0.00 0.00 0.00 69 1015.0
20260506235830 73 150 3.5 0.0 0.00 0.00 0.00 69 1015.0
20260506235520 69 150 3.5 0.0 0.00 0.00 0.00 69 1015.0
20260506235214 73 150 3.5 0.0 0.00 0.00 0.00 69 1015.0
20260506234908 65 150 3.5 0.0 0.00 0.00 0.00 69 1014.0
20260506234606 69 150 3.5 0.0 0.00 0.00 0.00 69 1014.0
20260506234305 73 150 3.5 0.0 0.00 0.00 0.00 69 1014.0
20260506233958 65 150 3.5 0.0 0.00 0.00 0.00 69 1014.0
20260506233657 69 150 3.5 0.0 0.00 0.00 0.00 69 1014.0
20260506233355 73 150 3.5 0.0 0.00 0.00 0.00 69 1013.0
20260506233048 73 150 3.5 0.0 0.00 0.00 0.00 69 1014.0
20260506232746 68 160 7.0 0.0 0.00 0.00 0.00 65 1013.0
20260506232445 73 150 3.5 0.0 0.00 0.00 0.00 69 1013.0
20260506232142 68 160 7.0 0.0 0.00 0.00 0.00 65 1013.0
20260506231835 72 160 7.0 0.0 0.00 0.00 0.00 65 1013.0
20260506231533 72 160 7.0 0.0 0.00 0.00 0.00 65 1013.0
20260506231229 72 160 7.0 0.0 0.00 0.00 0.00 65 1013.0
20260506230927 76 160 7.0 0.0 0.00 0.00 0.00 65 1013.0
20260506230314 76 160 7.0 0.0 0.00 0.00 0.00 65 1013.0
20260506225945 76 160 7.0 0.0 0.00 0.00 0.00 65 1013.0
20260506225638 76 160 7.0 0.0 0.00 0.00 0.00 65 1013.0
20260506225334 68 160 7.0 0.0 0.00 0.00 0.00 65 1013.0
20260506225026 76 160 7.0 0.0 0.00 0.00 0.00 65 1013.0
20260506224708 68 160 7.0 0.0 0.00 0.00 0.00 65 1013.0
20260506224402 72 160 7.0 0.0 0.00 0.00 0.00 65 1013.0
20260506224059 72 160 7.0 0.0 0.00 0.00 0.00 65 1013.0
20260506223756 72 160 7.0 0.0 0.00 0.00 0.00 65 1013.0
20260506223446 72 160 7.0 0.0 0.00 0.00 0.00 65 1012.0
20260506223140 76 160 7.0 0.0 0.00 0.00 0.00 65 1012.0
20260506222838 72 160 7.0 0.0 0.00 0.00 0.00 65 1012.0
20260506222534 72 160 7.0 0.0 0.00 0.00 0.00 65 1012.0
20260506222228 76 160 7.0 0.0 0.00 0.00 0.00 65 1012.0
20260506221926 72 160 7.0 0.0 0.00 0.00 0.00 65 1012.0
20260506221623 70 160 7.0 0.0 0.00 0.00 0.00 61 1012.0
20260506221320 76 160 7.0 0.0 0.00 0.00 0.00 65 1012.0
20260506221019 76 160 7.0 0.0 0.00 0.00 0.00 65 1012.0
20260506220717 70 160 7.0 0.0 0.00 0.00 0.00 61 1012.0
20260506220409 74 160 7.8 0.0 0.00 0.00 0.00 61 1012.0
20260506220107 74 160 7.8 0.0 0.00 0.00 0.00 61 1012.0
20260506215804 70 160 7.8 0.0 0.00 0.00 0.00 61 1012.0
20260506215502 74 160 7.8 0.0 0.00 0.00 0.00 61 1012.0
20260506215200 78 160 7.8 0.0 0.00 0.00 0.00 61 1012.0
20260506214853 70 160 7.8 0.0 0.00 0.00 0.00 61 1012.0
20260506214546 70 160 7.8 0.0 0.00 0.00 0.00 61 1012.0
20260506214245 74 160 7.8 0.0 0.00 0.00 0.00 61 1012.0
20260506213939 70 160 7.8 0.0 0.00 0.00 0.00 61 1012.0
20260506213637 74 160 7.8 0.0 0.00 0.00 0.00 61 1012.0
20260506213331 74 160 7.8 0.0 0.00 0.00 0.00 61 1012.0
20260506213023 78 160 7.8 0.0 0.00 0.00 0.00 61 1012.0
20260506212721 70 160 7.8 0.0 0.00 0.00 0.00 61 1012.0
20260506212419 74 160 7.8 0.0 0.00 0.00 0.00 61 1012.0
20260506212113 70 160 7.8 0.0 0.00 0.00 0.00 61 1012.0
20260506211811 74 160 7.8 0.0 0.00 0.00 0.00 61 1012.0
20260506211508 74 160 7.8 0.0 0.00 0.00 0.00 61 1012.0
20260506211200 78 160 7.8 0.0 0.00 0.00 0.00 61 1012.0
20260506210857 78 160 7.8 0.0 0.00 0.00 0.00 61 1012.0
20260506210550 72 150 7.8 0.0 0.00 0.00 0.00 58 1013.0
20260506210248 76 150 7.8 0.0 0.00 0.00 0.00 58 1013.0
20260506205939 72 150 7.8 0.0 0.00 0.00 0.00 58 1013.0
20260506205633 76 150 7.8 0.0 0.00 0.00 0.00 58 1013.0
20260506205330 76 150 7.8 0.0 0.00 0.00 0.00 58 1013.0
20260506205022 80 150 7.8 0.0 0.00 0.00 0.00 58 1013.0
20260506204714 80 150 7.8 0.0 0.00 0.00 0.00 58 1013.0
20260506204413 72 150 7.8 0.0 0.00 0.00 0.00 58 1013.0
20260506204112 72 150 7.8 0.0 0.00 0.00 0.00 58 1013.0
20260506203809 72 150 7.8 0.0 0.00 0.00 0.00 58 1013.0
20260506203507 72 150 7.8 0.0 0.00 0.00 0.00 58 1013.0
20260506203200 76 150 7.8 0.0 0.00 0.00 0.00 58 1013.0
20260506202858 76 150 7.8 0.0 0.00 0.00 0.00 58 1013.0
20260506202556 80 150 7.8 0.0 0.00 0.00 0.00 58 1013.0
20260506202249 80 150 7.8 0.0 0.00 0.00 0.00 58 1013.0
20260506201943 72 150 7.8 0.0 0.00 0.00 0.00 58 1013.0
20260506201635 76 150 7.8 0.0 0.00 0.00 0.00 58 1012.0
20260506201334 76 150 7.8 0.0 0.00 0.00 0.00 58 1012.0
20260506201029 80 150 7.8 0.0 0.00 0.00 0.00 58 1012.0
20260506200718 72 160 7.0 0.0 0.00 0.00 0.00 58 1013.0
20260506200411 80 160 7.0 0.0 0.00 0.00 0.00 58 1012.0
20260506200105 72 160 7.0 0.0 0.00 0.00 0.00 58 1013.0
20260506195758 72 160 7.0 0.0 0.00 0.00 0.00 58 1013.0
20260506195452 76 160 7.0 0.0 0.00 0.00 0.00 58 1013.0
20260506195150 80 160 7.0 0.0 0.00 0.00 0.00 58 1013.0
20260506194845 80 160 7.0 0.0 0.00 0.00 0.00 58 1013.0
20260506194538 72 160 7.0 0.0 0.00 0.00 0.00 58 1013.0
20260506194227 80 160 7.0 0.0 0.00 0.00 0.00 58 1013.0
20260506193926 72 160 7.0 0.0 0.00 0.00 0.00 58 1013.0
20260506193619 76 160 7.0 0.0 0.00 0.00 0.00 58 1013.0
20260506193313 80 160 7.0 0.0 0.00 0.00 0.00 58 1013.0
20260506193006 72 160 7.0 0.0 0.00 0.00 0.00 58 1013.0
20260506192704 76 160 7.0 0.0 0.00 0.00 0.00 58 1013.0
20260506192358 76 160 7.0 0.0 0.00 0.00 0.00 58 1013.0
20260506192052 80 160 7.0 0.0 0.00 0.00 0.00 58 1013.0
20260506191745 80 160 7.0 0.0 0.00 0.00 0.00 58 1013.0
20260506191439 74 160 7.0 0.0 0.00 0.00 0.00 61 1013.0
20260506191132 74 160 7.0 0.0 0.00 0.00 0.00 61 1013.0
20260506190830 78 150 7.0 0.0 0.00 0.00 0.00 61 1013.0
20260506190524 78 150 7.0 0.0 0.00 0.00 0.00 61 1013.0
20260506190217 74 150 7.0 0.0 0.00 0.00 0.00 61 1013.0
20260506185910 74 150 7.0 0.0 0.00 0.00 0.00 61 1013.0
20260506185604 74 150 7.0 0.0 0.00 0.00 0.00 61 1013.0
20260506185256 78 150 7.0 0.0 0.00 0.00 0.00 61 1013.0
20260506184944 74 150 7.0 0.0 0.00 0.00 0.00 61 1013.0
20260506184637 78 150 7.0 0.0 0.00 0.00 0.00 61 1013.0
20260506184325 78 150 7.0 0.0 0.00 0.00 0.00 61 1013.0
20260506183710 74 150 7.0 0.0 0.00 0.00 0.00 61 1013.0
20260506183403 78 150 7.0 0.0 0.00 0.00 0.00 61 1013.0
20260506183102 74 150 7.0 0.0 0.00 0.00 0.00 61 1014.0
20260506182755 74 150 7.0 0.0 0.00 0.00 0.00 61 1014.0
20260506182453 78 150 7.0 0.0 0.00 0.00 0.00 61 1014.0
20260506182152 74 150 7.0 0.0 0.00 0.00 0.00 61 1014.0
20260506181850 78 150 7.0 0.0 0.00 0.00 0.00 61 1014.0
20260506181539 74 150 7.0 0.0 0.00 0.00 0.00 61 1014.0
20260506181232 78 150 7.0 0.0 0.00 0.00 0.00 61 1014.0
20260506180929 72 150 7.0 0.0 0.00 0.00 0.00 65 1014.0
20260506180628 72 150 7.0 0.0 0.00 0.00 0.00 65 1014.0
20260506180318 76 160 5.2 0.0 0.00 0.00 0.00 65 1014.0
20260506180011 72 160 5.2 0.0 0.00 0.00 0.00 65 1014.0
20260506175705 76 160 5.2 0.0 0.00 0.00 0.00 65 1014.0
20260506175353 76 160 5.2 0.0 0.00 0.00 0.00 65 1014.0
20260506175047 72 160 5.2 0.0 0.00 0.00 0.00 65 1014.0
20260506174745 76 160 5.2 0.0 0.00 0.00 0.00 65 1014.0
20260506174432 76 160 5.2 0.0 0.00 0.00 0.00 65 1014.0
20260506174130 76 160 5.2 0.0 0.00 0.00 0.00 65 1014.0
20260506173824 72 160 5.2 0.0 0.00 0.00 0.00 65 1014.0
20260506173521 72 160 5.2 0.0 0.00 0.00 0.00 65 1014.0
20260506173214 72 160 5.2 0.0 0.00 0.00 0.00 65 1014.0
20260506172910 76 160 5.2 0.0 0.00 0.00 0.00 65 1016.0
20260506172604 76 160 5.2 0.0 0.00 0.00 0.00 65 1016.0
20260506172257 76 160 5.2 0.0 0.00 0.00 0.00 65 1016.0
20260506171950 72 160 5.2 0.0 0.00 0.00 0.00 65 1016.0
20260506171644 76 160 5.2 0.0 0.00 0.00 0.00 65 1015.0
20260506171337 76 160 5.2 0.0 0.00 0.00 0.00 65 1015.0
20260506171030 76 160 5.2 0.0 0.00 0.00 0.00 65 1015.0
20260506170723 76 160 5.2 0.0 0.00 0.00 0.00 65 1015.0
20260506170416 72 220 2.6 0.0 0.00 0.00 0.00 65 1015.0
20260506170110 76 220 2.6 0.0 0.00 0.00 0.00 65 1015.0
20260506165804 72 220 2.6 0.0 0.00 0.00 0.00 65 1015.0
20260506165501 72 220 2.6 0.0 0.00 0.00 0.00 65 1015.0
20260506165150 76 220 2.6 0.0 0.00 0.00 0.00 65 1015.0
20260506164846 72 220 2.6 0.0 0.00 0.00 0.00 65 1015.0
20260506164536 72 220 2.6 0.0 0.00 0.00 0.00 65 1015.0
20260506164230 76 220 2.6 0.0 0.00 0.00 0.00 65 1015.0
20260506163924 76 220 2.6 0.0 0.00 0.00 0.00 65 1015.0
20260506163622 76 220 2.6 0.0 0.00 0.00 0.00 65 1015.0
20260506163319 72 220 2.6 0.0 0.00 0.00 0.00 65 1015.0
20260506163018 76 220 2.6 0.0 0.00 0.00 0.00 65 1017.0
20260506162709 76 220 2.6 0.0 0.00 0.00 0.00 65 1017.0
20260506162403 72 220 2.6 0.0 0.00 0.00 0.00 65 1016.0
20260506162051 72 220 2.6 0.0 0.00 0.00 0.00 65 1016.0